W6MAF Weather Reports


Display with metric or nautical units.
time (UTC)temp
F
wind
direction
speed
MPH
gust
MPH
rain 1hr
in
rain 24hr
in
rain mn
in
humidity
%
barometer
mb
20260904221714 76 197 18.0 17.0 0.00 0.00 0.00 6
20260904221335 76 208 19.0 9.0 0.00 0.00 0.00 6
20260904221216 76 208 19.0 9.0 0.00 0.00 0.00 6
20260904220718 77 188 17.0 23.0 0.00 0.00 0.00 6
20260904220221 77 187 20.0 23.0 0.00 0.00 0.00 6
20260904215723 77 194 17.0 13.0 0.00 0.00 0.00 6
20260904215222 77 195 17.0 24.0 0.00 0.00 0.00 6
20260904214724 77 203 16.0 10.0 0.00 0.00 0.00 6
20260904214227 77 186 18.0 27.0 0.00 0.00 0.00 6
20260904213729 78 200 21.0 7.0 0.00 0.00 0.00 6
20260904213231 78 188 15.0 19.0 0.00 0.00 0.00 6
20260904212733 78 193 15.0 13.0 0.00 0.00 0.00 6
20260904212232 78 198 17.0 17.0 0.00 0.00 0.00 5
20260904211735 78 210 12.0 16.0 0.00 0.00 0.00 6
20260904211237 78 191 19.0 15.0 0.00 0.00 0.00 6
20260904210739 78 207 14.0 17.0 0.00 0.00 0.00 5
20260904210242 78 214 15.0 16.0 0.00 0.00 0.00 6
20260904205744 78 184 9.0 18.0 0.00 0.00 0.00 5
20260904205243 78 203 19.0 21.0 0.00 0.00 0.00 6
20260904204745 77 205 12.0 10.0 0.00 0.00 0.00 6
20260904204248 78 191 18.0 11.0 0.00 0.00 0.00 6
20260904203750 78 181 19.0 19.0 0.00 0.00 0.00 6
20260904203252 79 195 13.0 22.0 0.00 0.00 0.00 6
20260904202754 79 212 14.0 19.0 0.00 0.00 0.00 5
20260904202253 79 205 13.0 14.0 0.00 0.00 0.00 5
20260904201756 80 195 12.0 10.0 0.00 0.00 0.00 5
20260904201258 80 226 17.0 24.0 0.00 0.00 0.00 5
20260904200800 79 236 0.0 8.0 0.00 0.00 0.00 5
20260904200303 79 229 15.0 0.0 0.00 0.00 0.00 5
20260904195805 79 225 5.0 15.0 0.00 0.00 0.00 5
20260904195306 79 211 11.0 14.0 0.00 0.00 0.00 5
20260904194806 78 248 1.0 5.0 0.00 0.00 0.00 6
20260904193811 77 179 0.0 0.0 0.00 0.00 0.00 6
20260904193313 77 204 0.0 0.0 0.00 0.00 0.00 6
20260904192815 77 207 11.0 0.0 0.00 0.00 0.00 6
20260904192314 76 218 7.0 0.0 0.00 0.00 0.00 6
20260904191817 76 222 4.0 9.0 0.00 0.00 0.00 6
20260904191319 75 183 8.0 4.0 0.00 0.00 0.00 6
20260904190821 76 193 7.0 21.0 0.00 0.00 0.00 6
20260904190324 76 204 9.0 9.0 0.00 0.00 0.00 6
20260904185826 75 233 7.0 15.0 0.00 0.00 0.00 6
20260904185325 75 221 6.0 10.0 0.00 0.00 0.00 6
20260904184827 74 205 12.0 13.0 0.00 0.00 0.00 7
20260904183832 74 211 9.0 0.0 0.00 0.00 0.00 6
20260904183334 74 235 15.0 7.0 0.00 0.00 0.00 6
20260904182837 73 214 15.0 0.0 0.00 0.00 0.00 6
20260904182336 73 219 15.0 9.0 0.00 0.00 0.00 6
20260904181838 73 179 11.0 3.0 0.00 0.00 0.00 6
20260904181340 73 205 13.0 19.0 0.00 0.00 0.00 6
20260904180843 73 208 10.0 17.0 0.00 0.00 0.00 6
20260904175847 73 184 9.0 6.0 0.00 0.00 0.00 7
20260904175346 73 236 12.0 16.0 0.00 0.00 0.00 6
20260904174849 73 226 13.0 9.0 0.00 0.00 0.00 7
20260904174352 73 239 0.0 0.0 0.00 0.00 0.00 7
20260904173853 73 239 0.0 0.0 0.00 0.00 0.00 8
20260904173356 72 226 0.0 0.0 0.00 0.00 0.00 9
20260904172858 72 226 0.0 0.0 0.00 0.00 0.00 10
20260904172357 72 229 10.0 12.0 0.00 0.00 0.00 11
20260904171859 71 231 12.0 5.0 0.00 0.00 0.00 12
20260904171401 71 224 10.0 10.0 0.00 0.00 0.00 13
20260904170904 71 218 13.0 10.0 0.00 0.00 0.00 14
20260904170406 70 239 5.0 12.0 0.00 0.00 0.00 16
20260904165407 69 253 13.0 3.0 0.00 0.00 0.00 17
20260904164911 69 235 12.0 13.0 0.00 0.00 0.00 17
20260904164412 68 221 10.0 8.0 0.00 0.00 0.00 18
20260904163915 68 231 11.0 8.0 0.00 0.00 0.00 19
20260904163417 68 172 0.0 0.0 0.00 0.00 0.00 19
20260904162919 68 215 9.0 7.0 0.00 0.00 0.00 21
20260904162418 67 212 7.0 8.0 0.00 0.00 0.00 23
20260904161920 67 172 11.0 12.0 0.00 0.00 0.00 25
20260904161423 66 256 7.0 8.0 0.00 0.00 0.00 26
20260904160925 66 194 9.0 5.0 0.00 0.00 0.00 28
20260904160427 65 191 10.0 6.0 0.00 0.00 0.00 30
20260904155930 65 233 7.0 11.0 0.00 0.00 0.00 33
20260904155429 64 222 9.0 12.0 0.00 0.00 0.00 35
20260904154434 63 208 9.0 8.0 0.00 0.00 0.00 39
20260904153936 62 226 9.0 15.0 0.00 0.00 0.00 41
20260904153438 62 219 11.0 10.0 0.00 0.00 0.00 42
20260904152941 61 222 9.0 10.0 0.00 0.00 0.00 44
20260904152440 61 222 12.0 12.0 0.00 0.00 0.00 48
20260904151942 60 201 12.0 11.0 0.00 0.00 0.00 50
20260904151444 60 233 11.0 9.0 0.00 0.00 0.00 54
20260904150946 59 229 8.0 3.0 0.00 0.00 0.00 58
20260904150449 59 229 10.0 13.0 0.00 0.00 0.00 61
20260904145951 58 228 11.0 7.0 0.00 0.00 0.00 66
20260904145450 58 207 9.0 9.0 0.00 0.00 0.00 70
20260904144952 57 215 9.0 10.0 0.00 0.00 0.00 74
20260904144455 57 207 1.0 9.0 0.00 0.00 0.00 79
20260904143957 56 231 6.0 5.0 0.00 0.00 0.00 82
20260904143459 56 246 12.0 8.0 0.00 0.00 0.00 86
20260904143002 55 201 13.0 10.0 0.00 0.00 0.00 90
20260904142501 55 222 11.0 12.0 0.00 0.00 0.00 91
20260904142002 55 231 12.0 15.0 0.00 0.00 0.00 92
20260904141504 55 203 15.0 17.0 0.00 0.00 0.00 93
20260904141007 54 232 11.0 9.0 0.00 0.00 0.00 93
20260904140509 54 231 9.0 10.0 0.00 0.00 0.00 93
20260904140011 54 226 14.0 16.0 0.00 0.00 0.00 93
20260904135510 54 257 14.0 16.0 0.00 0.00 0.00 93
20260904134515 54 217 13.0 14.0 0.00 0.00 0.00 93
20260904134017 54 243 12.0 10.0 0.00 0.00 0.00 92
20260904133520 54 225 13.0 13.0 0.00 0.00 0.00 91
20260904133023 54 211 9.0 11.0 0.00 0.00 0.00 91
20260904132521 54 231 13.0 11.0 0.00 0.00 0.00 90
20260904132024 54 217 12.0 13.0 0.00 0.00 0.00 90
20260904131526 54 221 14.0 11.0 0.00 0.00 0.00 88
20260904131028 54 232 10.0 9.0 0.00 0.00 0.00 88
20260904130530 54 229 11.0 12.0 0.00 0.00 0.00 87
20260904130033 54 207 14.0 15.0 0.00 0.00 0.00 86
20260904125532 54 235 13.0 9.0 0.00 0.00 0.00 85
20260904125034 54 224 14.0 13.0 0.00 0.00 0.00 84
20260904124536 54 200 12.0 17.0 0.00 0.00 0.00 84
20260904124039 54 198 13.0 14.0 0.00 0.00 0.00 83
20260904123541 54 219 12.0 14.0 0.00 0.00 0.00 83
20260904123043 54 226 14.0 12.0 0.00 0.00 0.00 83
20260904122542 54 226 11.0 14.0 0.00 0.00 0.00 83
20260904122045 54 215 14.0 13.0 0.00 0.00 0.00 82
20260904121547 54 231 14.0 12.0 0.00 0.00 0.00 82
20260904121049 54 229 12.0 12.0 0.00 0.00 0.00 81
20260904120552 54 222 10.0 16.0 0.00 0.00 0.00 80
20260904120054 54 205 12.0 12.0 0.00 0.00 0.00 80
20260904115554 54 205 0.0 15.0 0.00 0.00 0.00 78
20260904115055 54 207 13.0 13.0 0.00 0.00 0.00 77
20260904114557 54 215 14.0 16.0 0.00 0.00 0.00 76
20260904114100 54 217 13.0 13.0 0.00 0.00 0.00 74
20260904113104 55 232 14.0 10.0 0.00 0.00 0.00 73
20260904112603 55 228 13.0 8.0 0.00 0.00 0.00 72
20260904112106 55 250 15.0 10.0 0.00 0.00 0.00 72
20260904111608 55 207 16.0 14.0 0.00 0.00 0.00 71
20260904111111 54 225 11.0 0.0 0.00 0.00 0.00 70
20260904110613 55 226 13.0 12.0 0.00 0.00 0.00 69
20260904110115 55 214 14.0 15.0 0.00 0.00 0.00 68
20260904105614 55 215 13.0 16.0 0.00 0.00 0.00 66
20260904105116 55 210 13.0 13.0 0.00 0.00 0.00 64
20260904104619 55 211 14.0 16.0 0.00 0.00 0.00 62
20260904104121 55 207 10.0 12.0 0.00 0.00 0.00 59
20260904103623 56 229 11.0 7.0 0.00 0.00 0.00 57
20260904103126 56 211 14.0 11.0 0.00 0.00 0.00 55
20260904102127 57 222 13.0 15.0 0.00 0.00 0.00 50
20260904101629 57 235 17.0 14.0 0.00 0.00 0.00 48
20260904101132 57 222 11.0 14.0 0.00 0.00 0.00 47
20260904100634 57 212 13.0 16.0 0.00 0.00 0.00 46
20260904100136 57 214 12.0 13.0 0.00 0.00 0.00 45
20260904095635 57 211 14.0 15.0 0.00 0.00 0.00 44
20260904095138 58 215 12.0 8.0 0.00 0.00 0.00 44
20260904094640 58 217 10.0 15.0 0.00 0.00 0.00 44
20260904094143 0 214 11.0 14.0 0.00 0.00 0.00 43
20260904093644 58 210 12.0 6.0 0.00 0.00 0.00 43
20260904093148 58 211 14.0 13.0 0.00 0.00 0.00 43
20260904092646 58 207 13.0 19.0 0.00 0.00 0.00 43
20260904092148 58 219 12.0 15.0 0.00 0.00 0.00 44
20260904091650 58 228 13.0 11.0 0.00 0.00 0.00 44
20260904091153 58 219 13.0 13.0 0.00 0.00 0.00 45
20260904090655 58 200 14.0 11.0 0.00 0.00 0.00 45
20260904090157 58 215 12.0 15.0 0.00 0.00 0.00 45
20260904085656 57 205 11.0 13.0 0.00 0.00 0.00 45
20260904085159 58 217 10.0 13.0 0.00 0.00 0.00 45
20260904084701 58 190 12.0 10.0 0.00 0.00 0.00 45
20260904084203 58 214 11.0 11.0 0.00 0.00 0.00 45
20260904083705 58 221 14.0 9.0 0.00 0.00 0.00 45
20260904083208 58 221 14.0 13.0 0.00 0.00 0.00 44
20260904082753 58 228 13.0 19.0 0.00 0.00 0.00 44
20260904082707 58 228 13.0 19.0 0.00 0.00 0.00 44
20260904082209 58 224 13.0 9.0 0.00 0.00 0.00 44
20260904081711 59 197 14.0 17.0 0.00 0.00 0.00 44
20260904081214 59 211 15.0 18.0 0.00 0.00 0.00 44
20260904080716 58 222 15.0 17.0 0.00 0.00 0.00 44
20260904080218 59 210 14.0 16.0 0.00 0.00 0.00 44
20260904075717 59 212 13.0 15.0 0.00 0.00 0.00 44
20260904075220 59 208 14.0 8.0 0.00 0.00 0.00 44
20260904074722 59 232 10.0 15.0 0.00 0.00 0.00 43
20260904074224 59 222 14.0 8.0 0.00 0.00 0.00 43
20260904073727 60 232 12.0 9.0 0.00 0.00 0.00 42
20260904073229 60 224 12.0 8.0 0.00 0.00 0.00 41
20260904072729 60 193 15.0 11.0 0.00 0.00 0.00 40
20260904072231 60 211 14.0 18.0 0.00 0.00 0.00 40
20260904071732 60 217 17.0 12.0 0.00 0.00 0.00 40
20260904071235 60 225 15.0 18.0 0.00 0.00 0.00 39
20260904070737 59 226 17.0 19.0 0.00 0.00 0.00 39
20260904070239 59 218 18.0 18.0 0.00 0.00 0.00 39
20260904065737 59 219 12.0 16.0 0.00 0.00 0.00 40
20260904065240 59 176 11.0 9.0 0.00 0.00 0.00 40
20260904064742 59 188 14.0 12.0 0.00 0.00 0.00 39
20260904064244 60 200 13.0 17.0 0.00 0.00 0.00 40
20260904063747 60 207 12.0 14.0 0.00 0.00 0.00 39
20260904063249 60 205 10.0 15.0 0.00 0.00 0.00 39
20260904062748 60 198 7.0 9.0 0.00 0.00 0.00 38
20260904062250 60 219 11.0 11.0 0.00 0.00 0.00 38
20260904061753 61 208 11.0 11.0 0.00 0.00 0.00 38
20260904061255 61 218 11.0 9.0 0.00 0.00 0.00 37
20260904060757 61 214 15.0 13.0 0.00 0.00 0.00 37
20260904060259 61 215 13.0 14.0 0.00 0.00 0.00 38
20260904055758 61 205 12.0 13.0 0.00 0.00 0.00 38
20260904055301 61 198 14.0 18.0 0.00 0.00 0.00 38
20260904054803 61 219 13.0 14.0 0.00 0.00 0.00 37
20260904054305 61 170 12.0 16.0 0.00 0.00 0.00 37
20260904053808 61 183 15.0 13.0 0.00 0.00 0.00 36
20260904053310 61 205 15.0 13.0 0.00 0.00 0.00 36
20260904052809 61 180 14.0 12.0 0.00 0.00 0.00 36
20260904052311 61 212 16.0 10.0 0.00 0.00 0.00 36
20260904051813 61 187 12.0 9.0 0.00 0.00 0.00 37
20260904051316 62 197 12.0 9.0 0.00 0.00 0.00 37
20260904050818 62 183 11.0 15.0 0.00 0.00 0.00 36
20260904050320 62 186 11.0 9.0 0.00 0.00 0.00 36
20260904045819 62 201 14.0 16.0 0.00 0.00 0.00 36
20260904045322 62 214 12.0 10.0 0.00 0.00 0.00 36
20260904044824 62 215 15.0 16.0 0.00 0.00 0.00 36
20260904044326 62 188 10.0 12.0 0.00 0.00 0.00 36
20260904043829 62 203 13.0 11.0 0.00 0.00 0.00 35
20260904043331 63 203 12.0 17.0 0.00 0.00 0.00 35
20260904042830 63 221 13.0 13.0 0.00 0.00 0.00 35
20260904042332 63 217 12.0 14.0 0.00 0.00 0.00 34
20260904041834 64 210 11.0 13.0 0.00 0.00 0.00 33
20260904041337 64 215 12.0 13.0 0.00 0.00 0.00 32
20260904040839 64 181 16.0 11.0 0.00 0.00 0.00 31
20260904040341 64 201 15.0 16.0 0.00 0.00 0.00 31
20260904035840 65 179 14.0 12.0 0.00 0.00 0.00 31
20260904035343 65 198 12.0 11.0 0.00 0.00 0.00 31
20260904034845 65 193 13.0 12.0 0.00 0.00 0.00 31
20260904034347 65 215 14.0 15.0 0.00 0.00 0.00 30
20260904033850 65 214 12.0 10.0 0.00 0.00 0.00 30
20260904033352 65 191 11.0 12.0 0.00 0.00 0.00 31
20260904032851 65 228 14.0 19.0 0.00 0.00 0.00 32
20260904032353 66 215 11.0 12.0 0.00 0.00 0.00 33
20260904031856 66 201 12.0 11.0 0.00 0.00 0.00 32
20260904031358 66 226 9.0 9.0 0.00 0.00 0.00 32
20260904030900 66 218 9.0 9.0 0.00 0.00 0.00 31
20260904030402 66 207 9.0 13.0 0.00 0.00 0.00 30
20260904025901 66 207 10.0 12.0 0.00 0.00 0.00 30
20260904025403 67 203 12.0 10.0 0.00 0.00 0.00 29
20260904024906 67 219 10.0 9.0 0.00 0.00 0.00 28
20260904024408 67 217 12.0 11.0 0.00 0.00 0.00 27
20260904023910 67 201 12.0 10.0 0.00 0.00 0.00 26
20260904023413 68 226 11.0 16.0 0.00 0.00 0.00 26
20260904022912 68 221 11.0 6.0 0.00 0.00 0.00 26
20260904022414 68 219 10.0 12.0 0.00 0.00 0.00 25
20260904021916 68 195 12.0 9.0 0.00 0.00 0.00 25
20260904021418 69 211 10.0 8.0 0.00 0.00 0.00 26
20260904020921 69 224 12.0 11.0 0.00 0.00 0.00 26
20260904020423 70 231 9.0 13.0 0.00 0.00 0.00 25
20260904015922 70 225 6.0 6.0 0.00 0.00 0.00 24
20260904015424 71 222 9.0 5.0 0.00 0.00 0.00 23
20260904014926 71 229 11.0 14.0 0.00 0.00 0.00 22
20260904014429 71 219 10.0 13.0 0.00 0.00 0.00 21
20260904013931 72 200 10.0 4.0 0.00 0.00 0.00 21
20260904012932 73 217 8.0 6.0 0.00 0.00 0.00 18
20260904012435 73 198 7.0 10.0 0.00 0.00 0.00 17
20260904011937 74 214 12.0 10.0 0.00 0.00 0.00 15
20260904011439 74 231 9.0 7.0 0.00 0.00 0.00 14
20260904010941 74 211 0.0 0.0 0.00 0.00 0.00 12
20260904010444 74 222 8.0 11.0 0.00 0.00 0.00 11
20260904005943 74 201 14.0 13.0 0.00 0.00 0.00 9
20260904005445 74 186 0.0 0.0 0.00 0.00 0.00 9
20260904004947 74 186 0.0 0.0 0.00 0.00 0.00 8
20260904004449 74 200 9.0 8.0 0.00 0.00 0.00 8
20260904003952 74 198 13.0 12.0 0.00 0.00 0.00 9
20260904003454 74 198 12.0 14.0 0.00 0.00 0.00 9
20260904002953 74 174 10.0 0.0 0.00 0.00 0.00 11
20260904002456 75 201 13.0 17.0 0.00 0.00 0.00 11
20260904001957 75 186 9.0 7.0 0.00 0.00 0.00 12
20260904001500 75 187 8.0 0.0 0.00 0.00 0.00 13
20260904001002 74 219 7.0 10.0 0.00 0.00 0.00 13
20260904000504 75 180 16.0 15.0 0.00 0.00 0.00 13
20260904000004 75 210 18.0 10.0 0.00 0.00 0.00 12
20260903235008 75 219 16.0 11.0 0.00 0.00 0.00 11
20260903234510 76 212 14.0 18.0 0.00 0.00 0.00 11
20260903234012 76 195 14.0 16.0 0.00 0.00 0.00 10
20260903233515 76 205 15.0 22.0 0.00 0.00 0.00 10
20260903233014 76 212 10.0 10.0 0.00 0.00 0.00 9
20260903232516 76 179 15.0 21.0 0.00 0.00 0.00 11
20260903232018 76 176 14.0 12.0 0.00 0.00 0.00 10
20260903231520 76 200 9.0 12.0 0.00 0.00 0.00 10
20260903231023 77 205 12.0 13.0 0.00 0.00 0.00 8
20260903230525 77 208 12.0 12.0 0.00 0.00 0.00 8
20260903230025 77 208 7.0 18.0 0.00 0.00 0.00 7
20260903225526 77 190 12.0 13.0 0.00 0.00 0.00 7
20260903225028 77 190 11.0 7.0 0.00 0.00 0.00 6
20260903224531 77 187 8.0 5.0 0.00 0.00 0.00 7
20260903224033 77 197 17.0 13.0 0.00 0.00 0.00 6
20260903223535 77 231 11.0 10.0 0.00 0.00 0.00 6
20260903223034 78 198 13.0 15.0 0.00 0.00 0.00 7
20260903222536 78 188 14.0 10.0 0.00 0.00 0.00 7